Time,TemperatureF,DewpointF,PressureIn,WindDirection,WindDirectionDegrees,WindSpeedMPH,WindSpeedGustMPH,Humidity,HourlyPrecipIn,Conditions,Clouds,dailyrainin,SoftwareType,DateUTC
2013-07-13 20:13:00,73.6,42.7,0.00,South,191,0.0,0.0,33,0.00,,,0.00,VWS V13.01,2013-07-14 01:13:00,
2013-07-13 20:14:00,73.6,42.7,0.00,South,191,0.0,0.0,33,0.67,,,0.00,VWS V13.01,2013-07-14 01:14:00,
2013-07-13 20:15:00,73.4,42.6,0.00,South,191,0.0,0.0,33,0.67,,,0.00,VWS V13.01,2013-07-14 01:15:00,
2013-07-13 20:16:00,73.4,42.6,0.00,South,191,0.0,0.0,33,0.67,,,0.00,VWS V13.01,2013-07-14 01:16:00,
2013-07-13 20:17:00,73.2,43.2,0.00,South,191,0.0,0.0,34,0.67,,,0.00,VWS V13.01,2013-07-14 01:17:00,
2013-07-13 20:18:00,73.0,43.0,0.00,South,191,0.0,0.0,34,0.67,,,0.00,VWS V13.01,2013-07-14 01:18:00,
2013-07-13 20:19:00,73.0,43.0,0.00,South,191,0.0,0.0,34,0.67,,,0.00,VWS V13.01,2013-07-14 01:19:00,
2013-07-13 20:29:00,73.0,43.8,0.00,SE,128,0.0,0.0,35,0.00,,,0.00,VWS V13.01,2013-07-14 01:29:00,
2013-07-13 20:34:00,72.9,44.4,0.00,SE,128,0.0,0.0,36,0.67,,,0.00,VWS V13.01,2013-07-14 01:34:00,
2013-07-13 20:39:00,73.2,45.4,0.00,SE,145,2.7,3.6,37,0.67,,,0.00,VWS V13.01,2013-07-14 01:39:00,
2013-07-13 20:44:00,73.0,46.0,0.00,SE,145,3.6,4.5,38,0.67,,,0.00,VWS V13.01,2013-07-14 01:44:00,
2013-07-13 20:49:00,72.9,45.1,0.00,SSE,147,3.6,4.5,37,0.67,,,0.00,VWS V13.01,2013-07-14 01:49:00,
2013-07-13 20:54:00,72.7,45.6,0.00,SE,146,3.6,4.0,38,0.67,,,0.00,VWS V13.01,2013-07-14 01:54:00,
2013-07-13 20:59:00,72.5,45.5,0.00,SSE,159,3.1,3.1,38,0.67,,,0.00,VWS V13.01,2013-07-14 01:59:00,
2013-07-13 21:04:00,72.3,46.0,0.00,SE,146,5.4,5.4,39,0.67,,,0.00,VWS V13.01,2013-07-14 02:04:00,
2013-07-13 21:09:00,72.1,45.8,0.00,SSE,155,5.4,5.4,39,0.67,,,0.00,VWS V13.01,2013-07-14 02:09:00,
2013-07-13 21:14:00,72.1,45.8,0.00,SSE,156,4.0,4.0,39,0.00,,,0.00,VWS V13.01,2013-07-14 02:14:00,
2013-07-13 21:19:00,72.0,45.0,0.00,SSE,154,3.6,3.6,38,0.00,,,0.00,VWS V13.01,2013-07-14 02:19:00,
2013-07-13 21:24:00,72.0,45.0,0.00,SE,137,3.1,3.6,38,0.00,,,0.00,VWS V13.01,2013-07-14 02:24:00,
2013-07-13 21:29:00,71.8,44.8,0.00,SE,133,3.1,3.1,38,0.00,,,0.00,VWS V13.01,2013-07-14 02:29:00,
2013-07-13 21:34:00,71.8,45.5,0.00,SE,125,3.6,3.6,39,0.00,,,0.00,VWS V13.01,2013-07-14 02:34:00,
2013-07-13 21:39:00,71.6,47.3,0.00,ESE,122,0.0,0.0,42,0.00,,,0.00,VWS V13.01,2013-07-14 02:39:00,
2013-07-13 21:44:00,71.4,47.2,0.00,ESE,122,0.0,0.0,42,0.00,,,0.00,VWS V13.01,2013-07-14 02:44:00,
2013-07-13 21:49:00,70.2,45.4,0.00,ESE,119,2.2,2.2,41,0.00,,,0.00,VWS V13.01,2013-07-14 02:49:00,
2013-07-13 21:54:00,69.1,45.7,0.00,ESE,117,0.0,0.0,43,0.00,,,0.00,VWS V13.01,2013-07-14 02:54:00,
2013-07-13 21:59:00,68.5,45.2,0.00,ESE,117,0.0,0.0,43,0.00,,,0.00,VWS V13.01,2013-07-14 02:59:00,
2013-07-13 22:04:00,68.2,45.5,0.00,ESE,117,0.0,0.0,44,0.00,,,0.00,VWS V13.01,2013-07-14 03:04:00,
2013-07-13 22:09:00,69.1,49.1,0.00,SE,140,4.9,5.4,49,0.00,,,0.00,VWS V13.01,2013-07-14 03:09:00,
2013-07-13 22:14:00,69.8,49.8,0.00,SE,141,3.6,4.0,49,0.00,,,0.00,VWS V13.01,2013-07-14 03:14:00,
2013-07-13 22:19:00,70.2,49.0,0.00,SE,144,2.2,2.7,47,0.00,,,0.00,VWS V13.01,2013-07-14 03:19:00,
2013-07-13 22:24:00,70.2,47.2,0.00,SSE,168,5.4,5.4,44,0.00,,,0.00,VWS V13.01,2013-07-14 03:24:00,
2013-07-13 22:29:00,70.7,47.1,0.00,SSE,164,5.8,6.3,43,0.00,,,0.00,VWS V13.01,2013-07-14 03:29:00,
2013-07-13 22:34:00,71.1,46.8,0.00,SE,146,5.8,5.8,42,0.00,,,0.00,VWS V13.01,2013-07-14 03:34:00,
2013-07-13 22:39:00,71.4,47.2,0.00,South,183,5.8,5.8,42,0.00,,,0.00,VWS V13.01,2013-07-14 03:39:00,
2013-07-13 22:44:00,71.4,45.2,0.00,South,169,4.0,4.9,39,0.00,,,0.00,VWS V13.01,2013-07-14 03:44:00,
2013-07-13 22:49:00,71.6,44.0,0.00,SSE,167,5.8,6.3,37,0.00,,,0.00,VWS V13.01,2013-07-14 03:49:00,
2013-07-13 22:54:00,71.8,43.4,0.00,South,174,2.7,3.6,36,0.00,,,0.00,VWS V13.01,2013-07-14 03:54:00,
2013-07-13 22:59:00,72.0,44.3,0.00,South,175,6.3,6.3,37,0.00,,,0.00,VWS V13.01,2013-07-14 03:59:00,
2013-07-13 23:01:00,72.0,44.3,0.00,South,172,4.0,6.3,37,0.00,,,0.00,VWS V13.01,2013-07-14 04:01:00,
2013-07-13 23:06:00,72.1,44.5,0.00,South,170,5.8,5.8,37,0.00,,,0.00,VWS V13.01,2013-07-14 04:06:00,
2013-07-13 23:11:00,72.1,44.5,0.00,South,170,5.8,5.8,37,0.00,,,0.00,VWS V13.01,2013-07-14 04:11:00,
2013-07-13 23:16:00,72.0,43.6,0.00,South,188,4.0,4.0,36,0.00,,,0.00,VWS V13.01,2013-07-14 04:16:00,
2013-07-13 23:21:00,72.1,44.5,0.00,South,186,4.9,4.9,37,0.00,,,0.00,VWS V13.01,2013-07-14 04:21:00,
2013-07-13 23:26:00,72.3,43.9,0.00,South,184,5.8,5.8,36,0.00,,,0.00,VWS V13.01,2013-07-14 04:26:00,
2013-07-13 23:31:00,72.3,43.2,0.00,SSE,156,5.8,5.8,35,0.00,,,0.00,VWS V13.01,2013-07-14 04:31:00,
2013-07-13 23:36:00,72.5,44.1,0.00,South,178,6.3,6.3,36,0.00,,,0.00,VWS V13.01,2013-07-14 04:36:00,
2013-07-13 23:41:00,72.3,42.4,0.00,South,170,2.7,3.1,34,0.00,,,0.00,VWS V13.01,2013-07-14 04:41:00,
2013-07-13 23:46:00,72.5,42.6,0.00,SSW,201,2.2,4.0,34,0.00,,,0.00,VWS V13.01,2013-07-14 04:46:00,
2013-07-13 23:51:00,72.5,42.6,0.00,South,178,0.0,2.7,34,0.00,,,0.00,VWS V13.01,2013-07-14 04:51:00,
2013-07-13 23:56:00,72.3,42.4,0.00,SSE,159,5.4,5.4,34,0.00,,,0.00,VWS V13.01,2013-07-14 04:56:00,